Погода в Итаке

Россия / Забайкальский край     53°53′19″N   118°42′35″E
темп.,
°C
ветер,
м/с
пор.,
м/с
влажн.,
%
обл.,
%
осадки,
мм/ч
давл.,
гПа
погр.,
м
19 сентября, вс
вс1900:000зюз11670 0.0 102010
03:00−1юз11730 0.0 102110
06:00−1юз11761 0.0 102110
09:00+4юз12570 0.0 1020192
12:00+10юз35490 0.0 1016902
15:00+14юз46465 0.0 10141588
18:00+11з26675 0.0 1014209
21:00+4юз1191100 0.0 101610
20 сентября, пн
пн2000:00+3ююз119423 0.0 101612
03:00+2юз119615 0.0 101611
06:00+2юз119771 0.0 101511
09:00+7юз11860 0.0 1014137
12:00+13юз23620 0.0 1011660
15:00+16юз235519 0.0 10091520
18:00+12ю237856 0.3 100959
21:00+8ююв118755 0.4 101010
21 сентября, вт
вт2100:00+8ю118966 0.0 101010
03:00+7ю119410 0.0 101110
06:00+5юв11955 0.0 101110
09:00+9ююв12852 0.0 1010158
12:00+14ю24620 0.0 10081146
15:00+15ююв345847 0.3 10061522
18:00+12юв237410 0.4 100672
21:00+7в229353 0.4 100816
22 сентября, ср
ср2200:00+8в219294 0.0 100930
03:00+8вюв2293100 0.1 100852
06:00+7вюв229598 0.0 100836
09:00+7юв1298100 1.8 1009131
12:00+8юв2498100 1.4 1011344
15:00+10ю3588100 1.6 1011628
18:00+10ююв2492100 0.6 1012229
21:00+6юв119599 0.8 101610
23 сентября, чт
чт2300:00+6в1195100 0.0 101710
03:00+4в119894 0.0 101810
06:00+6всв1198100 0.0 101826
09:00+7св2396100 0.1 1018201
12:00+7вюв2996100 3.9 1016571
15:00+6в31196100 7.0 1015688
18:00+8в41394100 4.8 10111001
21:00+8юв51294100 16.0 10101022